Location: Cluj-Napoca
(46.7712°N, 23.6236°E)
Time: 05:58:18
(UTC+02:00)

ISS - Pass Details

Date: 19 January 2021
Orbit: 418 x 421 km, 51.6° (Epoch: 23 January)

Event Time Altitude Azimuth Distance (km) Brightness Sun altitude
Rises 18:51:45 0° 214° (SW) 2,358 0.8 -17.1°
Reaches altitude 10° 18:54:00 10° 203° (SSW) 1,498 -0.5 -17.5°
Enters shadow 18:56:48 29° 147° (SSE) 812 -2.5 -18.0°
